DLH10B EDDF-EDDS

Flight info

Callsign DLH10B
Flight time 0h 25m
Altitude 19000
Route ANEKI2L/18 ANEKI Y163 NEKLO Y171 INKAM N850 KRH T128 BADSO BADSO2A
Aircraft A319/M-SDE3FGHIRWY/LB1

Departure

Time 2026-04-14 15:03
Airport Frankfurt Main Airport (EDDF)

Arrival

Time 2026-04-14 15:29
Airport Stuttgart Airport (EDDS)
Time Latitude Longitude Altitude Speed Heading
2026-04-14 14:32 50.04402 8.56222 362 ft 0 kts 159°
2026-04-14 14:53 50.04408 8.56219 363 ft 2 kts 160°
2026-04-14 14:53 50.04427 8.56209 360 ft 3 kts 166°
2026-04-14 14:53 50.04447 8.56203 360 ft 3 kts 177°
2026-04-14 14:53 50.04460 8.56202 362 ft 3 kts 194°
2026-04-14 14:54 50.04475 8.56213 363 ft 2 kts 245°
2026-04-14 14:54 50.04475 8.56211 364 ft 2 kts 250°
2026-04-14 14:54 50.04469 8.56183 362 ft 3 kts 250°
2026-04-14 14:54 50.04462 8.56153 359 ft 3 kts 250°
2026-04-14 14:55 50.04455 8.56125 360 ft 2 kts 249°
2026-04-14 14:55 50.04453 8.56116 358 ft 0 kts 249°
2026-04-14 14:57 50.04450 8.56106 361 ft 4 kts 249°
2026-04-14 14:57 50.04433 8.56050 359 ft 8 kts 234°
2026-04-14 14:58 50.04378 8.56034 359 ft 9 kts 162°
2026-04-14 14:58 50.04312 8.56073 355 ft 11 kts 167°
2026-04-14 14:58 50.04254 8.56000 359 ft 13 kts 253°
2026-04-14 14:58 50.04218 8.55850 358 ft 17 kts 249°
2026-04-14 14:59 50.04175 8.55672 357 ft 19 kts 251°
2026-04-14 14:59 50.04123 8.55455 358 ft 22 kts 250°
2026-04-14 14:59 50.04071 8.55237 356 ft 21 kts 248°
2026-04-14 14:59 50.04020 8.55023 359 ft 21 kts 249°
2026-04-14 15:00 50.03966 8.54796 358 ft 23 kts 250°
2026-04-14 15:00 50.03906 8.54547 352 ft 26 kts 249°
2026-04-14 15:00 50.03821 8.54282 351 ft 28 kts 237°
2026-04-14 15:00 50.03746 8.53995 348 ft 29 kts 249°
2026-04-14 15:01 50.03674 8.53693 350 ft 30 kts 250°
2026-04-14 15:01 50.03597 8.53385 339 ft 31 kts 250°
2026-04-14 15:01 50.03525 8.53086 338 ft 28 kts 249°
2026-04-14 15:01 50.03458 8.52825 334 ft 23 kts 247°
2026-04-14 15:02 50.03416 8.52653 334 ft 14 kts 250°
2026-04-14 15:02 50.03366 8.52594 335 ft 13 kts 179°
2026-04-14 15:02 50.03063 8.52597 336 ft 85 kts 179°
2026-04-14 15:02 50.02213 8.52607 335 ft 156 kts 180°
2026-04-14 15:03 50.01049 8.52629 801 ft 173 kts 176°
2026-04-14 15:03 49.99808 8.52691 1539 ft 183 kts 176°
2026-04-14 15:03 49.98501 8.52766 2262 ft 196 kts 177°
2026-04-14 15:03 49.97055 8.52867 2804 ft 220 kts 176°
2026-04-14 15:04 49.95466 8.52979 3570 ft 236 kts 177°
2026-04-14 15:04 49.93815 8.53093 4586 ft 238 kts 176°
2026-04-14 15:04 49.92146 8.53208 5651 ft 243 kts 176°
2026-04-14 15:04 49.90440 8.53324 6689 ft 247 kts 176°
2026-04-14 15:05 49.88708 8.53443 7703 ft 251 kts 176°
2026-04-14 15:05 49.86957 8.53565 8774 ft 252 kts 177°
2026-04-14 15:05 49.85203 8.53686 9951 ft 252 kts 178°
2026-04-14 15:05 49.83451 8.53804 10991 ft 252 kts 179°
2026-04-14 15:06 49.81690 8.53921 11914 ft 256 kts 179°
2026-04-14 15:06 49.79896 8.54036 12814 ft 260 kts 179°
2026-04-14 15:06 49.78087 8.54125 13689 ft 265 kts 184°
2026-04-14 15:06 49.76173 8.53910 14129 ft 287 kts 186°
2026-04-14 15:07 49.74100 8.53631 14433 ft 311 kts 187°
2026-04-14 15:07 49.71861 8.53321 14690 ft 335 kts 186°
2026-04-14 15:07 49.69469 8.52991 15111 ft 350 kts 186°
2026-04-14 15:07 49.67021 8.52663 15790 ft 357 kts 186°
2026-04-14 15:08 49.64557 8.52337 16518 ft 361 kts 186°
2026-04-14 15:08 49.62004 8.52002 17265 ft 366 kts 186°
2026-04-14 15:08 49.59451 8.51666 17994 ft 371 kts 186°
2026-04-14 15:08 49.56899 8.51332 18684 ft 375 kts 186°
2026-04-14 15:09 49.54286 8.50991 19060 ft 378 kts 186°
2026-04-14 15:09 49.51666 8.50649 19167 ft 379 kts 186°
2026-04-14 15:09 49.49029 8.50307 19190 ft 381 kts 186°
2026-04-14 15:09 49.46380 8.49964 19191 ft 382 kts 186°
2026-04-14 15:10 49.43733 8.49618 19192 ft 382 kts 186°
2026-04-14 15:10 49.41090 8.49272 19191 ft 381 kts 186°
2026-04-14 15:10 49.38444 8.48922 19191 ft 381 kts 186°
2026-04-14 15:10 49.35804 8.48572 19194 ft 381 kts 186°
2026-04-14 15:11 49.33158 8.48232 19191 ft 381 kts 184°
2026-04-14 15:11 49.30510 8.48348 19190 ft 382 kts 174°
2026-04-14 15:11 49.27910 8.49193 19194 ft 383 kts 163°
2026-04-14 15:11 49.25446 8.50765 19196 ft 384 kts 153°
2026-04-14 15:12 49.23160 8.52899 19195 ft 385 kts 148°
2026-04-14 15:12 49.20885 8.55097 19192 ft 385 kts 148°
2026-04-14 15:12 49.18652 8.57240 19192 ft 385 kts 150°
2026-04-14 15:12 49.16236 8.58979 19197 ft 383 kts 161°
2026-04-14 15:13 49.13654 8.59958 19199 ft 382 kts 173°
2026-04-14 15:13 49.11027 8.60157 19168 ft 373 kts 184°
2026-04-14 15:13 49.08477 8.59802 18813 ft 365 kts 187°
2026-04-14 15:13 49.05964 8.59417 18342 ft 361 kts 186°
2026-04-14 15:14 49.03468 8.59039 17803 ft 359 kts 186°
2026-04-14 15:14 49.00988 8.58668 17355 ft 357 kts 186°
2026-04-14 15:14 48.98510 8.58515 16934 ft 356 kts 178°
2026-04-14 15:14 48.96044 8.58799 16520 ft 354 kts 176°
2026-04-14 15:15 48.93591 8.59096 16116 ft 352 kts 176°
2026-04-14 15:15 48.91157 8.59389 15722 ft 350 kts 176°
2026-04-14 15:15 48.88750 8.59914 15347 ft 349 kts 165°
2026-04-14 15:15 48.86571 8.61489 14979 ft 349 kts 146°
2026-04-14 15:16 48.84849 8.64073 14612 ft 349 kts 126°
2026-04-14 15:16 48.83779 8.67367 14209 ft 349 kts 106°
2026-04-14 15:16 48.83488 8.70998 13776 ft 347 kts 86°
2026-04-14 15:16 48.83861 8.74560 13331 ft 345 kts 78°
2026-04-14 15:17 48.84322 8.78113 12894 ft 341 kts 78°
2026-04-14 15:17 48.84773 8.81616 12497 ft 335 kts 79°
2026-04-14 15:17 48.85202 8.84969 12120 ft 328 kts 79°
2026-04-14 15:17 48.85631 8.88335 11743 ft 321 kts 79°
2026-04-14 15:18 48.86049 8.91627 11366 ft 314 kts 79°
2026-04-14 15:18 48.86455 8.94853 10993 ft 308 kts 79°
2026-04-14 15:18 48.86851 8.98018 10628 ft 303 kts 79°
2026-04-14 15:18 48.87240 9.01143 10270 ft 298 kts 79°
2026-04-14 15:19 48.87622 9.04203 9917 ft 292 kts 79°
2026-04-14 15:19 48.87997 9.07214 9546 ft 288 kts 79°
2026-04-14 15:19 48.88362 9.10168 9169 ft 281 kts 79°
2026-04-14 15:19 48.88716 9.13043 8805 ft 274 kts 79°
2026-04-14 15:20 48.89066 9.15865 8443 ft 269 kts 79°
2026-04-14 15:20 48.89413 9.18645 8086 ft 267 kts 79°
2026-04-14 15:20 48.89757 9.21411 7755 ft 265 kts 79°
2026-04-14 15:20 48.90093 9.24130 7429 ft 259 kts 79°
2026-04-14 15:21 48.90418 9.26782 7108 ft 253 kts 79°
2026-04-14 15:21 48.90687 9.29398 6785 ft 249 kts 87°
2026-04-14 15:21 48.90478 9.31977 6459 ft 245 kts 106°
2026-04-14 15:21 48.89736 9.34276 6114 ft 241 kts 125°
2026-04-14 15:22 48.88566 9.36069 5782 ft 240 kts 143°
2026-04-14 15:22 48.87117 9.37301 5451 ft 237 kts 152°
2026-04-14 15:22 48.85655 9.38438 5115 ft 235 kts 152°
2026-04-14 15:22 48.84219 9.39562 4765 ft 233 kts 152°
2026-04-14 15:23 48.82797 9.40676 4433 ft 226 kts 152°
2026-04-14 15:23 48.81419 9.41758 4103 ft 222 kts 152°
2026-04-14 15:23 48.80075 9.42810 3999 ft 212 kts 152°
2026-04-14 15:23 48.78781 9.43821 4007 ft 208 kts 152°
2026-04-14 15:24 48.77476 9.44757 3995 ft 207 kts 162°
2026-04-14 15:24 48.76071 9.45047 4007 ft 200 kts 184°
2026-04-14 15:24 48.74724 9.44589 3962 ft 198 kts 203°
2026-04-14 15:24 48.73582 9.43483 3805 ft 193 kts 224°
2026-04-14 15:25 48.72792 9.41939 3613 ft 180 kts 244°
2026-04-14 15:25 48.72384 9.40233 3405 ft 169 kts 257°
2026-04-14 15:25 48.72074 9.38583 3187 ft 158 kts 257°
2026-04-14 15:25 48.71781 9.37027 2979 ft 149 kts 257°
2026-04-14 15:26 48.71506 9.35567 2795 ft 139 kts 257°
2026-04-14 15:26 48.71248 9.34171 2614 ft 138 kts 257°
2026-04-14 15:26 48.70986 9.32770 2409 ft 139 kts 255°
2026-04-14 15:26 48.70723 9.31380 2247 ft 132 kts 256°
2026-04-14 15:27 48.70465 9.30017 2041 ft 138 kts 256°
2026-04-14 15:27 48.70198 9.28656 1814 ft 133 kts 256°
2026-04-14 15:27 48.69945 9.27316 1609 ft 132 kts 256°
2026-04-14 15:27 48.69707 9.25993 1418 ft 127 kts 255°
2026-04-14 15:28 48.69469 9.24759 1256 ft 118 kts 255°
2026-04-14 15:28 48.69238 9.23553 1202 ft 106 kts 254°
2026-04-14 15:28 48.69087 9.22726 1223 ft 58 kts 253°
2026-04-14 15:28 48.68965 9.22076 1244 ft 52 kts 254°
2026-04-14 15:29 48.68940 9.21816 1253 ft 17 kts 272°
2026-04-14 15:29 48.68952 9.21673 1254 ft 12 kts 278°
2026-04-14 15:29 48.68972 9.21564 1260 ft 10 kts 284°
2026-04-14 15:29 48.68988 9.21466 1263 ft 9 kts 283°
2026-04-14 15:30 48.69004 9.21377 1266 ft 9 kts 282°
2026-04-14 15:30 48.68989 9.21280 1273 ft 11 kts 253°
2026-04-14 15:30 48.68968 9.21166 1272 ft 11 kts 255°
2026-04-14 15:30 48.68948 9.21065 1273 ft 8 kts 253°
2026-04-14 15:31 48.68935 9.20999 1276 ft 5 kts 253°
2026-04-14 15:31 48.68923 9.20937 1278 ft 11 kts 254°
2026-04-14 15:31 48.68901 9.20822 1283 ft 11 kts 253°
2026-04-14 15:31 48.68879 9.20707 1285 ft 13 kts 253°
2026-04-14 15:32 48.68852 9.20561 1291 ft 15 kts 254°
2026-04-14 15:32 48.68822 9.20392 1294 ft 18 kts 255°
2026-04-14 15:32 48.68791 9.20229 1300 ft 15 kts 254°
2026-04-14 15:32 48.68761 9.20070 1301 ft 17 kts 255°
2026-04-14 15:33 48.68801 9.19919 1299 ft 14 kts 314°
2026-04-14 15:33 48.68885 9.19853 1302 ft 13 kts 318°
2026-04-14 15:33 48.68887 9.19750 1303 ft 10 kts 251°
2026-04-14 15:33 48.68869 9.19656 1304 ft 8 kts 254°
2026-04-14 15:34 48.68871 9.19613 1305 ft 3 kts 309°
2026-04-14 15:34 48.68890 9.19599 1306 ft 3 kts 342°
2026-04-14 15:34 48.68903 9.19594 1307 ft 1 kts 343°
2026-04-14 15:34 48.68910 9.19591 1308 ft 3 kts 344°
2026-04-14 15:35 48.68920 9.19586 1308 ft 1 kts 343°
2026-04-14 15:35 48.68926 9.19584 1309 ft 0 kts 343°